COSMOS 2251 DEB, 37284

Orbit data source: Space-Track

COSMOS 2251 DEB, 37284 is space debris in LEO originally from a launch on Wed, 16 Jun 1993 UTC launched from the Plesetsk Missile And Space Complex (PKMTR). The debris from Iridium 33, an American commercial communications satellite, has been tracked extensively since its accidental collision with the defunct Russian satellite Cosmos 2251 in 2009. This event, occurring at high speed in low Earth orbit (LEO), generated thousands of pieces of space debris, significantly increasing the risk of further collisions. The Iridium 33 debris cloud has impacted space traffic management and orbital debris mitigation strategies, making it a subject of ongoing study in space situational awareness.

Loading next visibility...
Identifier
37284, 1993-036BHY
Orbit
LEO
Country
Flag of CISCIS
Related business
Manufacturer
Unknown
Mission
Spacecraft
Bus & Motor
Unknown
Mass
Unknown
Launch date (UTC)
1993-06-16 (33 years ago)
Launch vehicle
Unknown
Launch site
Plesetsk Missile And Space Complex (PKMTR)
Object type
Payload
Rocket body
Debris
Shape & HBR
Unknown shape, 0.1 m
Radar Cross Section
Small (<0.1 m²)

Expand to show TLE details & history
Last TLE update: 2 weeks ago

TLE from 2 weeks ago
0 COSMOS 2251 DEB
1 37284U 93036BHY 26194.54216729  .00000567  00000-0  27740-3 0  9994
2 37284  74.0128 139.6685 0161629 241.2178 242.5105 14.13670016621812
Epoch: 2026-07-13T13:00Z
TLE epoch observation values (Epoch: 2026-07-13T13:00:43.253Z)
Latitude
54.62988°
Longitude
169.39207°
Altitude
910.882 km
Speed
7.373 km/s
True Right ascension
19h 43m 59s
True Declination
54° 28' 15"
Sunlit
Object was in daylight at epoch
Visualization orbit readout
Latitude
Unknown
Longitude
Unknown
Altitude
Unknown
Speed
Unknown
Apparent Right ascension
Unknown
Apparent Declination
Unknown
Sunlit
N/A
Visualization observer readout
Local Sidereal Time
12:54:02
Azimuth
Unknown
Elevation
Unknown
Doppler factor
Unknown
Orbital elements
Apogee altitude
961.229 km
Perigee altitude
727.751 km
Semi-major axis
7,222.627 km
Eccentricity
0.01616
Inclination
74.0128°
RAAN
139.6685°
Arg. of periapsis
241.2178°
True anomaly
240.88289°
Mean anomaly
242.5105°
Eccentric anomaly
241.69516°
Mean motion
3.5359 °/min
Orbital period
101.81 mins
BSTAR
0.0002774

Documentation

Showing up to 5 results
|